Location: Baller�as
(41.9020°N, 0.1554°W)
Time: 01:22:02
(UTC+00:00)

SL-16 R/B - Pass Details

Date: 10 August 2020
Orbit: 843 x 845 km, 71.0° (Epoch: 22 September)

Event Time Altitude Azimuth Distance (km) Brightness Sun altitude
Rises 21:06:24 0° 343° (NNW) 3,414 6.4 -19.5°
Reaches altitude 10° 21:09:10 10° 354° (N) 2,475 5.3 -19.9°
Maximum altitude 21:14:08 30° 55° (NE) 1,467 3.3 -20.5°
Enters shadow 21:15:48 26° 85° (E) 1,612 3.3 -20.7°
